Regional Weather Roundup
Issued by NWS

Home | Current Version | Previous Version | Graphics & Text | Print | Product List | Glossary On
Versions: 1 2 3 4 5 6 7 8 9 10 11 12 13 14 15 16 17 18 19 20 21 22 23 24 25 26 27 28 29 30 31 32 33 34 35 36 37 38 39 40 41 42 43 44 45 46 47 48 49 50
314
ASUS44 KJAN 012003
RWRMS

MISSISSIPPI HOURLY WEATHER ROUNDUP
NATIONAL WEATHER SERVICE JACKSON MS
300 PM CDT FRI AUG 01 2014

NOTE: "FAIR: INDICATES FEW OR NO CLOUDS BELOW 12,000 FEET WITH NO
SIGNIFICANT WEATHER AND/OR OBSTRUCTIONS TO VISIBILITY.

MSZ001>002-007>008-010>013-018>021-025>028-034>036-012100-
NORTHWEST MISSISSIPPI

CITY           SKY/WX    TMP DP  RH WIND       PRES   REMARKS
CLARKSDALE     PTSUNNY   81  66  61 CALM      30.03F
CLEVELAND      CLOUDY    78  70  76 S5        30.02S
GREENWOOD      LGT RAIN  78  65  63 S3        30.02F
GREENVILLE     CLOUDY    78  67  68 E6        30.02F
GRENADA        FAIR      81  63  54 CALM      30.03S
OXFORD         FAIR      82  63  51 E6        30.05F
TUNICA         CLEAR     82  63  51 NE6       30.03F
$$

MSZ003>006-009-014>017-022>024-029>033-037>039-012100-
NORTHEAST MISSISSIPPI

CITY           SKY/WX    TMP DP  RH WIND       PRES   REMARKS
BELMONT        MOCLDY    84  65  54 NE5       30.03F
COLUMBUS AFB   PTSUNNY   84  63  49 NE3       30.01F
CORINTH        FAIR      86  57  37 NE7       30.04S
GOLDN TRIANGLE PTSUNNY   84  64  51 N7        30.02F
STARKVILLE     MOCLDY    81  66  61 NW6       30.02F
TUPELO         SUNNY     86  60  41 VRB6      30.02F
$$

MSZ040-058-012100-
CENTRAL MISSISSIPPI

CITY           SKY/WX    TMP DP  RH WIND       PRES   REMARKS
JACKSON INTL   CLOUDY    78  65  63 S3        30.02F
JACKSON HAWKNS CLOUDY    78  66  66 SE3       30.02F
MERIDIAN KEY   NOT AVBL
MERIDIAN NAS   CLOUDY    87  63  44 CALM      30.01F
RAYMOND        FAIR      77  73  88 NE3       30.02F
VICKSBURG      CLOUDY    76  69  79 SE8       30.00F
$$

MSZ059>079-012100-
SOUTH MISSISSIPPI

CITY           SKY/WX    TMP DP  RH WIND       PRES   REMARKS
BROOKHAVEN     FAIR      75  72  88 CALM      30.04S FOG
COLUMBIA       DRIZZLE   77  72  83 NE5       30.01S
HATTIESBURG    CLOUDY    81  67  62 N6        30.02F
MCCOMB         LGT RAIN  75  70  84 E3        30.02S
NATCHEZ        PTSUNNY   72  70  94 SE12G17   30.00F
PINE BELT      CLOUDY    81  66  61 N5        30.04S
$$

MSZ080>082-012100-
COASTAL MISSISSIPPI

CITY           SKY/WX    TMP DP  RH WIND       PRES   REMARKS
BAY ST LOUIS   SUNNY    N/A N/A N/A VRB5      29.99F
BILOXI         CLOUDY    82  67  59 NE2       29.99F
PASCAGOULA     CLOUDY    83  66  56 NE5       29.99F
GULFPORT       CLOUDY    86  68  54 N7        29.99F
$$



USA.gov is the U.S. government's official web portal to all federal, state and local government web resources and services.